Tucson Davis Monthan, AZ

3:44 PM MST on December 13, 2017 (GMT -0700)
Davis-Monthan Air Force Base

Weather History for KDMA - February, 2014

Change the Weather History Date:

Saturday, February 15, 2014

  Actual Average Record
Temperature  
Mean Temperature 68 °F -  
Max Temperature 85 °F 68 °F 85 °F (1957)
Min Temperature 52 °F 41 °F 24 °F (1964)
Cooling Degree Days 4    
Growing Degree Days 18 (Base 50)    
Moisture  
Dew Point 23 °F    
Average Humidity 21    
Maximum Humidity 33    
Minimum Humidity 8    
Precipitation  
Precipitation 0.00 in - - ()
Sea Level Pressure  
Sea Level Pressure 29.97 in    
Wind  
Wind Speed 7 mph (SSE)    
Max Wind Speed 12 mph    
Max Gust Speed -    
Visibility 10 miles    
Events      
Averages and records for this station are not official NWS values.
T = Trace of Precipitation, MM = Missing Value Source: NWS Daily Summary

Daily Weather History Graph

Daily Weather History Graph

Search for Another Location

Airport or City:

Trip Planner

Search our weather history database for the weather conditions in past years. The results will help you decide how hot, cold, wet, or windy it might be!

Date:

Astronomy

Feb. 15, 2014 Rise Set
Actual Time 7:05 AM MST 6:09 PM MST
Civil Twilight 6:40 AM MST 6:34 PM MST
Nautical Twilight 6:12 AM MST 7:03 PM MST
Astronomical Twilight 5:43 AM MST 7:32 PM MST
Moon 7:06 PM MST (2/15) 7:11 AM MST (2/15)
Length of Visible Light 11h 54m
Length of Day
11h 04m
Waxing Gibbous, 99% of the Moon is Illuminated
Feb 15
Waxing Gibbous
Feb 22
Last Quarter
Mar 1
New
Mar 8
First Quarter
Mar 16
Full

Hourly Weather History & Observations

Time (MST) Temp. Dew Point Humidity Pressure Visibility Wind Dir Wind Speed Gust Speed Precip Events Conditions
12:58 AM 54.7 °F 24.8 °F 32% 29.99 in 10.0 mi ESE 6.9 mph - N/A   Clear
1:58 AM 54.0 °F 24.3 °F 32% 29.98 in 10.0 mi SSE 8.1 mph - N/A   Clear
2:58 AM 53.1 °F 24.1 °F 32% 29.97 in 10.0 mi SE 6.9 mph - N/A   Clear
3:58 AM 52.3 °F 24.1 °F 33% 29.97 in 10.0 mi SE 8.1 mph - N/A   Clear
4:58 AM 55.2 °F 23.5 °F 29% 29.96 in 10.0 mi SE 11.5 mph - N/A   Clear
5:58 AM 55.0 °F 22.8 °F 29% 29.96 in 10.0 mi SE 11.5 mph - N/A   Clear
6:58 AM 53.4 °F 22.5 °F 30% 30.00 in 10.0 mi SSE 8.1 mph - N/A   Clear
7:58 AM 54.1 °F 22.8 °F 30% 30.01 in 10.0 mi SSE 9.2 mph - N/A   Clear
8:58 AM 60.1 °F 24.4 °F 26% 30.01 in 10.0 mi SSE 10.4 mph - N/A   Clear
9:58 AM 68.4 °F 25.5 °F 20% 30.01 in 10.0 mi SE 6.9 mph - N/A   Clear
10:58 AM 74.5 °F 25.9 °F 16% 30.01 in 10.0 mi SSW 4.6 mph - N/A   Clear
11:58 AM 78.6 °F 22.5 °F 12% 29.99 in 10.0 mi Calm Calm - N/A   Clear
12:58 PM 82.0 °F 19.4 °F 10% 29.96 in 10.0 mi SW 2.3 mph - N/A   Clear
1:58 PM 84.6 °F 17.6 °F 8% 29.94 in 10.0 mi West 6.9 mph - N/A   Clear
2:58 PM 85.5 °F 17.1 °F 8% 29.91 in 10.0 mi North 4.6 mph - N/A   Clear
3:58 PM 85.8 °F 21.7 °F 10% 29.91 in 10.0 mi North 8.1 mph - N/A   Clear
4:58 PM 84.9 °F 20.7 °F 9% 29.91 in 10.0 mi NNW 11.5 mph - N/A   Clear
5:58 PM 79.9 °F 24.1 °F 13% 29.92 in 10.0 mi NNW 10.4 mph - N/A   Clear
6:58 PM 74.8 °F 23.0 °F 14% 29.95 in 10.0 mi NNW 5.8 mph - N/A   Clear
7:58 PM 73.0 °F 23.2 °F 15% 29.96 in 10.0 mi NW 6.9 mph - N/A   Clear
8:58 PM 66.4 °F 24.4 °F 20% 29.97 in 10.0 mi SSW 5.8 mph - N/A   Clear
9:58 PM 61.5 °F 24.1 °F 24% 29.98 in 10.0 mi SSE 8.1 mph - N/A   Clear
10:58 PM 59.9 °F 24.3 °F 26% 29.97 in 10.0 mi SE 8.1 mph - N/A   Clear
11:58 PM 57.4 °F 24.1 °F 28% 29.97 in 10.0 mi ESE 2.3 mph - N/A   Clear